Time,TemperatureF,DewpointF,PressureIn,WindDirection,WindDirectionDegrees,WindSpeedMPH,WindSpeedGustMPH,Humidity,HourlyPrecipIn,Conditions,Clouds,dailyrainin,SoftwareType,DateUTC
2013-04-02 00:01:00,42.1,29.2,30.17,NNE,26,2.6,4.0,60,0.00,RA,,0.00,WeatherDisplay:10.37,2013-04-02 05:01:00,
2013-04-02 00:06:00,42.1,28.8,30.17,NE,41,6.3,9.2,59,0.00,RA,,0.00,WeatherDisplay:10.37,2013-04-02 05:06:00,
2013-04-02 00:11:00,42.0,29.1,30.16,ESE,110,1.0,3.5,60,0.00,,,0.00,WeatherDisplay:10.37,2013-04-02 05:11:00,
2013-04-02 00:16:00,41.9,29.0,30.16,ENE,68,3.5,4.6,60,0.00,,,0.00,WeatherDisplay:10.37,2013-04-02 05:16:00,
2013-04-02 00:21:00,41.8,28.9,30.17,NNE,23,3.9,8.1,60,0.00,,,0.00,WeatherDisplay:10.37,2013-04-02 05:21:00,
2013-04-02 00:26:00,41.8,29.3,30.18,NW,307,0.1,1.1,61,0.00,,,0.00,WeatherDisplay:10.37,2013-04-02 05:26:00,
2013-04-02 00:31:00,41.8,30.1,30.19,NE,53,0.8,3.5,63,0.00,,,0.00,WeatherDisplay:10.37,2013-04-02 05:31:00,
2013-04-02 00:36:00,41.7,29.6,30.19,ENE,67,2.0,4.0,62,0.00,,,0.00,WeatherDisplay:10.37,2013-04-02 05:36:00,
2013-04-02 00:41:00,41.7,29.2,30.20,NE,45,5.5,8.1,61,0.00,,,0.00,WeatherDisplay:10.37,2013-04-02 05:41:00,
2013-04-02 00:46:00,41.7,29.2,30.20,NNE,25,2.7,6.0,61,0.00,,,0.00,WeatherDisplay:10.37,2013-04-02 05:46:00,
2013-04-02 00:51:00,41.6,28.7,30.20,NE,56,5.6,8.1,60,0.00,,,0.00,WeatherDisplay:10.37,2013-04-02 05:51:00,
2013-04-02 00:56:00,41.6,29.1,30.21,ENE,69,1.0,4.6,61,0.00,,,0.00,WeatherDisplay:10.37,2013-04-02 05:56:00,
2013-04-02 01:01:00,41.6,28.7,30.21,ENE,70,1.9,4.6,60,0.00,,,0.00,WeatherDisplay:10.37,2013-04-02 06:01:00,
2013-04-02 01:06:00,41.5,29.4,30.21,East,85,1.4,2.0,62,0.00,CLR,,0.00,WeatherDisplay:10.37,2013-04-02 06:06:00,
2013-04-02 01:11:00,41.5,29.0,30.21,ENE,64,0.8,1.1,61,0.00,CLR,,0.00,WeatherDisplay:10.37,2013-04-02 06:11:00,
2013-04-02 01:17:00,41.5,29.4,30.21,ENE,70,1.3,2.3,62,0.00,CLR,,0.00,WeatherDisplay:10.37,2013-04-02 06:17:00,
2013-04-02 01:22:00,41.4,29.3,30.21,ENE,69,0.4,1.1,62,0.00,CLR,,0.00,WeatherDisplay:10.37,2013-04-02 06:22:00,
2013-04-02 01:27:00,41.4,29.3,30.21,East,79,0.6,1.1,62,0.00,CLR,,0.00,WeatherDisplay:10.37,2013-04-02 06:27:00,
2013-04-02 01:32:00,41.4,29.3,30.21,ENE,62,1.2,2.3,62,0.00,CLR,,0.00,WeatherDisplay:10.37,2013-04-02 06:32:00,
2013-04-02 01:37:00,41.3,29.6,30.21,NE,47,1.2,2.3,63,0.00,CLR,,0.00,WeatherDisplay:10.37,2013-04-02 06:37:00,
2013-04-02 01:42:00,41.3,30.0,30.21,ENE,68,0.0,1.1,64,0.00,CLR,,0.00,WeatherDisplay:10.37,2013-04-02 06:42:00,
2013-04-02 01:47:00,41.3,30.0,30.21,North,9,0.0,1.1,64,0.00,CLR,,0.00,WeatherDisplay:10.37,2013-04-02 06:47:00,
2013-04-02 01:52:00,41.2,29.5,30.21,ENE,67,0.6,1.1,63,0.00,CLR,,0.00,WeatherDisplay:10.37,2013-04-02 06:52:00,
2013-04-02 01:57:00,41.2,29.5,30.21,North,11,0.0,1.1,63,0.00,CLR,,0.00,WeatherDisplay:10.37,2013-04-02 06:57:00,
2013-04-02 02:02:00,41.1,29.8,30.21,East,84,1.5,1.5,64,0.00,CLR,,0.00,WeatherDisplay:10.37,2013-04-02 07:02:00,
2013-04-02 02:07:00,41.1,29.8,30.21,NNE,12,0.6,3.5,64,0.00,,,0.00,WeatherDisplay:10.37,2013-04-02 07:07:00,
2013-04-02 02:12:00,41.1,30.2,30.21,NNW,339,0.8,2.3,65,0.00,,,0.00,WeatherDisplay:10.37,2013-04-02 07:12:00,
2013-04-02 02:17:00,41.0,28.6,30.21,ENE,68,4.4,5.0,61,0.00,,,0.00,WeatherDisplay:10.37,2013-04-02 07:17:00,
2013-04-02 02:22:00,41.0,28.6,30.21,NE,56,2.7,5.8,61,0.00,,,0.00,WeatherDisplay:10.37,2013-04-02 07:22:00,
2013-04-02 02:27:00,41.0,28.6,30.22,East,83,0.3,1.1,61,0.00,,,0.00,WeatherDisplay:10.37,2013-04-02 07:27:00,
2013-04-02 02:33:00,40.9,28.9,30.21,ENE,69,2.0,3.5,62,0.00,,,0.00,WeatherDisplay:10.37,2013-04-02 07:33:00,
2013-04-02 02:38:00,40.8,28.8,30.21,ENE,70,2.9,3.0,62,0.00,,,0.00,WeatherDisplay:10.37,2013-04-02 07:38:00,
2013-04-02 02:43:00,40.7,29.1,30.21,ESE,107,3.2,3.5,63,0.00,,,0.00,WeatherDisplay:10.37,2013-04-02 07:43:00,
2013-04-02 02:48:00,40.5,28.9,30.21,NE,44,2.5,6.9,63,0.00,,,0.00,WeatherDisplay:10.37,2013-04-02 07:48:00,
2013-04-02 02:53:00,40.4,29.2,30.21,NNE,27,4.4,8.1,64,0.00,,,0.00,WeatherDisplay:10.37,2013-04-02 07:53:00,
2013-04-02 02:58:00,40.3,29.1,30.21,ENE,58,3.3,8.1,64,0.00,,,0.00,WeatherDisplay:10.37,2013-04-02 07:58:00,
2013-04-02 03:03:00,40.1,28.9,30.21,NE,37,1.8,5.8,64,0.00,,,0.00,WeatherDisplay:10.37,2013-04-02 08:03:00,
2013-04-02 03:08:00,40.0,28.8,30.22,North,1,2.4,5.0,64,0.00,CLR,,0.00,WeatherDisplay:10.37,2013-04-02 08:08:00,
2013-04-02 03:13:00,40.0,29.2,30.22,NE,54,3.0,6.9,65,0.00,CLR,,0.00,WeatherDisplay:10.37,2013-04-02 08:13:00,
2013-04-02 03:18:00,39.9,28.7,30.22,NE,54,3.6,8.1,64,0.00,CLR,,0.00,WeatherDisplay:10.37,2013-04-02 08:18:00,
2013-04-02 03:23:00,39.8,28.6,30.23,ENE,70,1.7,6.9,64,0.00,CLR,,0.00,WeatherDisplay:10.37,2013-04-02 08:23:00,
2013-04-02 03:28:00,39.7,28.5,30.22,NE,34,3.1,4.6,64,0.00,CLR,,0.00,WeatherDisplay:10.37,2013-04-02 08:28:00,
2013-04-02 03:33:00,39.6,28.4,30.22,NE,44,3.4,4.6,64,0.00,CLR,,0.00,WeatherDisplay:10.37,2013-04-02 08:33:00,
2013-04-02 03:38:00,39.4,29.7,30.22,NE,41,0.8,4.0,68,0.00,CLR,,0.00,WeatherDisplay:10.37,2013-04-02 08:38:00,
2013-04-02 03:43:00,39.2,29.2,30.23,North,354,3.2,5.8,67,0.00,CLR,,0.00,WeatherDisplay:10.37,2013-04-02 08:43:00,
2013-04-02 03:48:00,39.0,29.7,30.22,ENE,60,2.2,3.5,69,0.00,CLR,,0.00,WeatherDisplay:10.37,2013-04-02 08:48:00,
2013-04-02 03:53:00,38.8,28.8,30.22,NE,54,3.2,6.0,67,0.00,CLR,,0.00,WeatherDisplay:10.37,2013-04-02 08:53:00,
2013-04-02 03:58:00,38.7,29.0,30.22,NE,47,5.4,8.1,68,0.00,CLR,,0.00,WeatherDisplay:10.37,2013-04-02 08:58:00,
2013-04-02 04:03:00,38.3,29.0,30.22,NE,35,4.2,10.4,69,0.00,CLR,,0.00,WeatherDisplay:10.37,2013-04-02 09:03:00,
2013-04-02 04:08:00,37.8,29.9,30.21,NE,41,4.3,6.9,73,0.01,RA,,0.01,WeatherDisplay:10.37,2013-04-02 09:08:00,
2013-04-02 04:13:00,37.2,30.3,30.21,NNE,20,1.9,4.6,76,0.02,RA,,0.02,WeatherDisplay:10.37,2013-04-02 09:13:00,
2013-04-02 04:18:00,36.8,30.9,30.21,North,8,0.3,1.1,79,0.02,RA,,0.02,WeatherDisplay:10.37,2013-04-02 09:18:00,
2013-04-02 04:23:00,36.6,30.7,30.21,NE,56,1.5,3.5,79,0.02,,,0.02,WeatherDisplay:10.37,2013-04-02 09:23:00,
2013-04-02 04:28:00,36.5,30.9,30.21,ENE,63,0.7,1.1,80,0.02,,,0.02,WeatherDisplay:10.37,2013-04-02 09:28:00,
2013-04-02 04:33:00,36.4,30.8,30.20,ENE,59,2.2,3.5,80,0.02,,,0.02,WeatherDisplay:10.37,2013-04-02 09:33:00,
2013-04-02 04:38:00,36.4,31.1,30.21,NE,51,1.0,3.5,81,0.03,RA,,0.03,WeatherDisplay:10.37,2013-04-02 09:38:00,
2013-04-02 04:43:00,36.3,31.3,30.21,NE,56,1.3,3.0,82,0.03,RA,,0.03,WeatherDisplay:10.37,2013-04-02 09:43:00,
2013-04-02 04:48:00,36.3,31.3,30.22,North,350,0.6,1.0,82,0.03,,,0.03,WeatherDisplay:10.37,2013-04-02 09:48:00,
2013-04-02 04:53:00,36.2,30.9,30.22,NE,51,1.9,3.5,81,0.03,,,0.03,WeatherDisplay:10.37,2013-04-02 09:53:00,
2013-04-02 04:58:00,36.2,31.5,30.21,NNE,33,0.9,2.3,83,0.03,,,0.03,WeatherDisplay:10.37,2013-04-02 09:58:00,
2013-04-02 05:03:00,36.1,31.4,30.21,ENE,71,0.8,2.3,83,0.04,RA,,0.04,WeatherDisplay:10.37,2013-04-02 10:03:00,
2013-04-02 05:08:00,35.9,31.8,30.21,NE,50,1.3,2.3,85,0.03,RA,,0.04,WeatherDisplay:10.37,2013-04-02 10:08:00,
2013-04-02 05:13:00,35.7,31.9,30.21,NE,52,1.2,2.3,86,0.02,,,0.04,WeatherDisplay:10.37,2013-04-02 10:13:00,
2013-04-02 05:18:00,35.6,31.8,30.21,ENE,61,1.4,4.6,86,0.02,,,0.04,WeatherDisplay:10.37,2013-04-02 10:18:00,
2013-04-02 05:23:00,35.5,31.7,30.21,NE,49,1.8,6.9,86,0.03,RA,,0.05,WeatherDisplay:10.37,2013-04-02 10:23:00,
2013-04-02 05:28:00,35.4,31.9,30.21,NNE,18,4.8,4.8,87,0.03,RA,,0.05,WeatherDisplay:10.37,2013-04-02 10:28:00,
2013-04-02 05:33:00,35.4,31.9,30.21,ENE,58,2.6,8.1,87,0.03,,,0.05,WeatherDisplay:10.37,2013-04-02 10:33:00,
2013-04-02 05:38:00,35.3,31.5,30.22,NE,46,1.6,8.1,86,0.02,,,0.05,WeatherDisplay:10.37,2013-04-02 10:38:00,
2013-04-02 05:43:00,35.3,31.5,30.22,NE,56,2.4,4.6,86,0.02,,,0.05,WeatherDisplay:10.37,2013-04-02 10:43:00,
2013-04-02 05:48:00,35.4,31.6,30.21,ESE,103,2.7,4.6,86,0.02,,,0.05,WeatherDisplay:10.37,2013-04-02 10:48:00,
2013-04-02 05:53:00,35.5,31.4,30.21,North,5,1.2,3.5,85,0.02,,,0.05,WeatherDisplay:10.37,2013-04-02 10:53:00,
2013-04-02 05:58:00,35.5,31.1,30.22,ENE,60,2.4,4.0,84,0.02,,,0.05,WeatherDisplay:10.37,2013-04-02 10:58:00,
2013-04-02 06:03:00,35.5,31.4,30.22,NNE,33,1.0,3.5,85,0.01,,,0.05,WeatherDisplay:10.37,2013-04-02 11:03:00,
2013-04-02 06:08:00,35.4,31.6,30.22,ENE,72,1.8,3.5,86,0.01,,,0.05,WeatherDisplay:10.37,2013-04-02 11:08:00,
2013-04-02 06:14:00,35.5,31.4,30.22,ENE,74,3.7,5.8,85,0.01,,,0.05,WeatherDisplay:10.37,2013-04-02 11:14:00,
2013-04-02 06:19:00,35.5,31.1,30.22,ENE,65,1.9,4.6,84,0.01,,,0.05,WeatherDisplay:10.37,2013-04-02 11:19:00,
2013-04-02 06:24:00,35.6,31.5,30.23,NE,54,1.4,2.3,85,0.00,,,0.05,WeatherDisplay:10.37,2013-04-02 11:24:00,
2013-04-02 06:29:00,35.6,31.5,30.23,NE,50,1.9,3.0,85,0.00,CLR,,0.05,WeatherDisplay:10.37,2013-04-02 11:29:00,
2013-04-02 06:34:00,35.5,31.4,30.23,East,100,0.8,3.5,85,0.00,CLR,,0.05,WeatherDisplay:10.37,2013-04-02 11:34:00,
2013-04-02 06:39:00,35.5,31.4,30.23,ENE,61,2.5,3.5,85,0.00,CLR,,0.05,WeatherDisplay:10.37,2013-04-02 11:39:00,
2013-04-02 06:44:00,35.5,31.4,30.23,NE,54,4.1,5.8,85,0.00,CLR,,0.05,WeatherDisplay:10.37,2013-04-02 11:44:00,
2013-04-02 06:49:00,35.5,31.7,30.23,North,5,0.5,2.3,86,0.00,CLR,,0.05,WeatherDisplay:10.37,2013-04-02 11:49:00,
2013-04-02 06:54:00,35.4,31.9,30.24,West,278,0.2,1.1,87,0.00,CLR,,0.05,WeatherDisplay:10.37,2013-04-02 11:54:00,
2013-04-02 06:59:00,35.4,31.9,30.24,ENE,58,2.3,6.0,87,0.00,CLR,,0.05,WeatherDisplay:10.37,2013-04-02 11:59:00,
2013-04-02 07:04:00,35.5,32.0,30.24,ESE,103,1.4,2.3,87,0.00,CLR,,0.05,WeatherDisplay:10.37,2013-04-02 12:04:00,
2013-04-02 07:09:00,35.4,31.9,30.25,NNE,23,0.1,1.1,87,0.00,CLR,,0.05,WeatherDisplay:10.37,2013-04-02 12:09:00,
2013-04-02 07:14:00,35.4,31.9,30.24,ENE,68,2.3,3.5,87,0.00,CLR,,0.05,WeatherDisplay:10.37,2013-04-02 12:14:00,
2013-04-02 07:19:00,35.5,31.7,30.25,ENE,59,3.6,5.0,86,0.01,RA,,0.06,WeatherDisplay:10.37,2013-04-02 12:19:00,
2013-04-02 07:24:00,35.5,31.7,30.25,ESE,104,0.3,1.1,86,0.01,RA,,0.06,WeatherDisplay:10.37,2013-04-02 12:24:00,
2013-04-02 07:29:00,35.4,31.6,30.25,NE,44,1.1,3.5,86,0.02,RA,,0.07,WeatherDisplay:10.37,2013-04-02 12:29:00,
2013-04-02 07:34:00,35.3,31.8,30.25,NNE,15,0.5,2.3,87,0.02,RA,,0.07,WeatherDisplay:10.37,2013-04-02 12:34:00,
2013-04-02 07:39:00,35.2,31.7,30.25,ENE,58,2.7,4.6,87,0.02,CLR,,0.07,WeatherDisplay:10.37,2013-04-02 12:39:00,
2013-04-02 07:44:00,35.2,32.0,30.27,NW,309,1.3,3.5,88,0.02,CLR,,0.07,WeatherDisplay:10.37,2013-04-02 12:44:00,
2013-04-02 07:49:00,35.1,31.9,30.27,North,359,0.4,1.1,88,0.02,CLR,,0.07,WeatherDisplay:10.37,2013-04-02 12:49:00,
2013-04-02 07:54:00,35.2,32.0,30.26,East,100,1.3,3.0,88,0.02,CLR,,0.07,WeatherDisplay:10.37,2013-04-02 12:54:00,
2013-04-02 07:59:00,35.2,32.0,30.26,ESE,108,0.6,2.3,88,0.02,CLR,,0.07,WeatherDisplay:10.37,2013-04-02 12:59:00,
2013-04-02 08:04:00,35.3,32.1,30.26,East,79,0.0,1.1,88,0.02,CLR,,0.07,WeatherDisplay:10.37,2013-04-02 13:04:00,
2013-04-02 08:09:00,35.2,32.0,30.27,NNW,330,0.8,3.5,88,0.02,CLR,,0.07,WeatherDisplay:10.37,2013-04-02 13:09:00,
2013-04-02 08:14:00,35.3,32.1,30.27,ENE,61,0.7,4.0,88,0.02,CLR,,0.07,WeatherDisplay:10.37,2013-04-02 13:14:00,
2013-04-02 08:19:00,35.3,32.1,30.27,NNE,28,2.1,3.5,88,0.01,CLR,,0.07,WeatherDisplay:10.37,2013-04-02 13:19:00,
2013-04-02 08:24:00,35.3,32.1,30.27,NE,49,0.2,1.1,88,0.01,CLR,,0.07,WeatherDisplay:10.37,2013-04-02 13:24:00,
2013-04-02 08:29:00,35.3,32.1,30.28,NNE,19,2.1,4.0,88,0.00,CLR,,0.07,WeatherDisplay:10.37,2013-04-02 13:29:00,
2013-04-02 08:34:00,35.3,32.1,30.28,ENE,64,2.1,3.5,88,0.00,CLR,,0.07,WeatherDisplay:10.37,2013-04-02 13:34:00,
2013-04-02 08:39:00,35.4,31.6,30.27,East,82,2.6,4.6,86,0.00,CLR,,0.07,WeatherDisplay:10.37,2013-04-02 13:39:00,
2013-04-02 08:44:00,35.4,31.6,30.26,ENE,75,2.6,5.8,86,0.00,CLR,,0.07,WeatherDisplay:10.37,2013-04-02 13:44:00,
2013-04-02 08:49:00,35.5,32.0,30.27,ESE,113,1.2,3.0,87,0.00,CLR,,0.07,WeatherDisplay:10.37,2013-04-02 13:49:00,
2013-04-02 08:54:00,35.4,31.9,30.28,ENE,61,0.8,2.3,87,0.00,CLR,,0.07,WeatherDisplay:10.37,2013-04-02 13:54:00,
2013-04-02 08:59:00,35.4,31.9,30.28,ENE,78,1.0,3.5,87,0.00,CLR,,0.07,WeatherDisplay:10.37,2013-04-02 13:59:00,
2013-04-02 09:04:00,35.3,32.1,30.27,East,84,1.3,3.5,88,0.00,CLR,,0.07,WeatherDisplay:10.37,2013-04-02 14:04:00,
2013-04-02 09:09:00,35.3,32.1,30.28,ENE,71,0.3,1.1,88,0.00,CLR,,0.07,WeatherDisplay:10.37,2013-04-02 14:09:00,
2013-04-02 09:14:00,35.3,32.4,30.28,SE,127,0.4,2.3,89,0.01,RA,,0.08,WeatherDisplay:10.37,2013-04-02 14:14:00,
2013-04-02 09:19:00,35.2,31.4,30.28,East,94,2.9,3.5,86,0.01,RA,,0.08,WeatherDisplay:10.37,2013-04-02 14:19:00,
2013-04-02 09:24:00,35.3,32.1,30.28,ESE,107,2.6,3.5,88,0.01,CLR,,0.08,WeatherDisplay:10.37,2013-04-02 14:24:00,
2013-04-02 09:29:00,35.2,31.7,30.28,ENE,71,3.5,5.8,87,0.01,CLR,,0.08,WeatherDisplay:10.37,2013-04-02 14:29:00,
2013-04-02 09:34:00,35.0,31.5,30.28,ESE,113,2.2,3.5,87,0.01,CLR,,0.08,WeatherDisplay:10.37,2013-04-02 14:34:00,
2013-04-02 09:39:00,35.0,31.8,30.28,East,94,1.4,3.5,88,0.01,CLR,,0.08,WeatherDisplay:10.37,2013-04-02 14:39:00,
2013-04-02 09:44:00,34.9,31.4,30.29,ENE,75,0.9,2.0,87,0.01,CLR,,0.08,WeatherDisplay:10.37,2013-04-02 14:44:00,
2013-04-02 09:49:00,35.0,31.5,30.29,ENE,74,1.5,2.3,87,0.01,CLR,,0.08,WeatherDisplay:10.37,2013-04-02 14:49:00,
2013-04-02 09:54:00,34.9,31.7,30.28,East,92,1.3,3.0,88,0.01,CLR,,0.08,WeatherDisplay:10.37,2013-04-02 14:54:00,
2013-04-02 09:59:00,34.9,31.7,30.29,ESE,117,0.6,2.3,88,0.01,CLR,,0.08,WeatherDisplay:10.37,2013-04-02 14:59:00,
2013-04-02 10:04:00,34.9,31.4,30.29,ENE,71,0.7,3.5,87,0.01,CLR,,0.08,WeatherDisplay:10.37,2013-04-02 15:04:00,
2013-04-02 10:09:00,35.1,32.2,30.29,East,81,0.3,1.0,89,0.01,CLR,,0.08,WeatherDisplay:10.37,2013-04-02 15:09:00,
2013-04-02 10:14:00,35.1,32.2,30.29,ENE,75,0.2,1.1,89,0.01,RA,,0.09,WeatherDisplay:10.37,2013-04-02 15:14:00,
2013-04-02 10:19:00,35.1,32.5,30.29,East,84,1.3,2.3,90,0.01,RA,,0.09,WeatherDisplay:10.37,2013-04-02 15:19:00,
2013-04-02 10:24:00,34.9,32.0,30.29,East,88,0.8,2.3,89,0.01,CLR,,0.09,WeatherDisplay:10.37,2013-04-02 15:24:00,
2013-04-02 10:29:00,34.9,32.0,30.28,ESE,117,2.3,4.6,89,0.01,CLR,,0.09,WeatherDisplay:10.37,2013-04-02 15:29:00,
2013-04-02 10:34:00,35.0,32.4,30.29,ENE,68,4.0,4.6,90,0.01,CLR,,0.09,WeatherDisplay:10.37,2013-04-02 15:34:00,
2013-04-02 10:39:00,35.0,32.4,30.29,SE,131,1.8,3.5,90,0.01,CLR,,0.09,WeatherDisplay:10.37,2013-04-02 15:39:00,
2013-04-02 10:45:00,34.9,32.3,30.29,ESE,105,4.3,5.8,90,0.01,CLR,,0.09,WeatherDisplay:10.37,2013-04-02 15:45:00,
2013-04-02 10:50:00,34.8,31.9,30.28,East,79,6.1,8.1,89,0.01,CLR,,0.09,WeatherDisplay:10.37,2013-04-02 15:50:00,
2013-04-02 10:55:00,34.9,32.3,30.28,East,89,1.4,2.3,90,0.01,CLR,,0.09,WeatherDisplay:10.37,2013-04-02 15:55:00,
2013-04-02 11:00:00,34.9,32.0,30.29,SE,134,1.7,5.8,89,0.01,CLR,,0.09,WeatherDisplay:10.37,2013-04-02 16:00:00,
2013-04-02 11:05:00,35.0,32.4,30.28,East,88,2.8,6.9,90,0.01,CLR,,0.09,WeatherDisplay:10.37,2013-04-02 16:05:00,
2013-04-02 11:10:00,35.1,32.5,30.28,ESE,113,3.2,5.0,90,0.01,CLR,,0.09,WeatherDisplay:10.37,2013-04-02 16:10:00,
2013-04-02 11:15:00,35.1,32.5,30.29,ESE,113,3.8,6.9,90,0.00,CLR,,0.09,WeatherDisplay:10.37,2013-04-02 16:15:00,
2013-04-02 11:20:00,35.1,31.9,30.28,ESE,109,3.8,6.9,88,0.00,CLR,,0.09,WeatherDisplay:10.37,2013-04-02 16:20:00,
2013-04-02 11:25:00,35.1,32.2,30.28,East,99,5.0,6.9,89,0.00,CLR,,0.09,WeatherDisplay:10.37,2013-04-02 16:25:00,
2013-04-02 11:30:00,35.3,32.1,30.28,East,94,5.1,11.5,88,0.00,CLR,,0.09,WeatherDisplay:10.37,2013-04-02 16:30:00,
2013-04-02 11:36:00,35.4,31.9,30.28,SE,143,4.8,9.2,87,0.00,CLR,,0.09,WeatherDisplay:10.37,2013-04-02 16:36:00,
2013-04-02 11:41:00,35.5,32.0,30.28,ENE,71,5.3,6.9,87,0.00,CLR,,0.09,WeatherDisplay:10.37,2013-04-02 16:41:00,
2013-04-02 11:47:00,35.5,32.3,30.28,ENE,69,4.2,6.9,88,0.00,CLR,,0.09,WeatherDisplay:10.37,2013-04-02 16:47:00,
2013-04-02 11:52:00,35.7,32.5,30.28,East,99,3.7,5.8,88,0.00,CLR,,0.09,WeatherDisplay:10.37,2013-04-02 16:52:00,
2013-04-02 11:57:00,35.6,31.8,30.28,ESE,116,6.7,9.2,86,0.00,CLR,,0.09,WeatherDisplay:10.37,2013-04-02 16:57:00,
2013-04-02 12:02:00,35.5,31.4,30.29,ENE,71,4.5,9.0,85,0.00,CLR,,0.09,WeatherDisplay:10.37,2013-04-02 17:02:00,
2013-04-02 12:07:00,35.6,31.8,30.29,ESE,107,2.4,6.9,86,0.00,CLR,,0.09,WeatherDisplay:10.37,2013-04-02 17:07:00,
2013-04-02 12:12:00,35.7,32.5,30.28,ESE,122,2.0,5.0,88,0.00,CLR,,0.09,WeatherDisplay:10.37,2013-04-02 17:12:00,
2013-04-02 12:17:00,35.9,32.4,30.28,ENE,67,2.1,3.5,87,0.00,CLR,,0.09,WeatherDisplay:10.37,2013-04-02 17:17:00,
2013-04-02 12:23:00,35.8,32.3,30.28,ESE,103,0.8,3.5,87,0.00,CLR,,0.09,WeatherDisplay:10.37,2013-04-02 17:23:00,
2013-04-02 12:28:00,35.9,32.4,30.28,ENE,77,2.6,4.6,87,0.00,CLR,,0.09,WeatherDisplay:10.37,2013-04-02 17:28:00,
2013-04-02 12:33:00,35.9,32.7,30.28,East,98,3.8,8.0,88,0.00,CLR,,0.09,WeatherDisplay:10.37,2013-04-02 17:33:00,
2013-04-02 12:38:00,35.8,32.9,30.28,ESE,111,1.9,2.3,89,0.01,RA,,0.10,WeatherDisplay:10.37,2013-04-02 17:38:00,
2013-04-02 12:43:00,35.8,32.9,30.28,ESE,122,0.6,3.5,89,0.01,RA,,0.10,WeatherDisplay:10.37,2013-04-02 17:43:00,
2013-04-02 12:49:00,35.7,33.1,30.28,East,100,1.0,3.5,90,0.01,CLR,,0.10,WeatherDisplay:10.37,2013-04-02 17:49:00,
2013-04-02 12:54:00,35.7,32.8,30.28,SSE,152,2.8,5.8,89,0.01,CLR,,0.10,WeatherDisplay:10.37,2013-04-02 17:54:00,
2013-04-02 12:59:00,35.6,33.0,30.28,East,79,2.2,3.5,90,0.01,CLR,,0.10,WeatherDisplay:10.37,2013-04-02 17:59:00,
2013-04-02 13:04:00,35.7,33.1,30.28,East,94,1.5,2.3,90,0.01,CLR,,0.10,WeatherDisplay:10.37,2013-04-02 18:04:00,
2013-04-02 13:09:00,35.9,33.5,30.28,ENE,70,2.2,3.5,91,0.02,RA,,0.11,WeatherDisplay:10.37,2013-04-02 18:09:00,
2013-04-02 13:14:00,35.9,33.3,30.28,ENE,72,3.5,4.6,90,0.02,RA,,0.11,WeatherDisplay:10.37,2013-04-02 18:14:00,
2013-04-02 13:19:00,35.9,33.3,30.27,ESE,109,5.5,6.9,90,0.02,CLR,,0.11,WeatherDisplay:10.37,2013-04-02 18:19:00,
2013-04-02 13:24:00,35.8,33.4,30.28,ESE,120,1.6,3.5,91,0.02,CLR,,0.11,WeatherDisplay:10.37,2013-04-02 18:24:00,
2013-04-02 13:29:00,36.0,33.6,30.27,East,85,3.4,5.8,91,0.02,CLR,,0.11,WeatherDisplay:10.37,2013-04-02 18:29:00,
2013-04-02 13:34:00,35.9,33.5,30.27,ESE,109,1.7,9.2,91,0.01,CLR,,0.11,WeatherDisplay:10.37,2013-04-02 18:34:00,
2013-04-02 13:39:00,35.9,33.5,30.27,SE,135,2.7,3.5,91,0.01,CLR,,0.11,WeatherDisplay:10.37,2013-04-02 18:39:00,
2013-04-02 13:44:00,36.0,33.9,30.27,East,96,2.7,4.6,92,0.02,RA,,0.12,WeatherDisplay:10.37,2013-04-02 18:44:00,
2013-04-02 13:49:00,36.1,33.7,30.27,ESE,117,3.1,5.0,91,0.02,RA,,0.12,WeatherDisplay:10.37,2013-04-02 18:49:00,
2013-04-02 13:55:00,36.0,33.9,30.27,East,87,2.7,3.5,92,0.02,CLR,,0.12,WeatherDisplay:10.37,2013-04-02 18:55:00,
2013-04-02 14:00:00,36.0,33.9,30.27,East,79,0.6,3.5,92,0.02,CLR,,0.12,WeatherDisplay:10.37,2013-04-02 19:00:00,
2013-04-02 14:05:00,36.2,34.1,30.27,East,79,1.8,3.5,92,0.02,CLR,,0.12,WeatherDisplay:10.37,2013-04-02 19:05:00,
2013-04-02 14:10:00,36.5,34.7,30.27,East,89,1.0,2.0,93,0.01,CLR,,0.12,WeatherDisplay:10.37,2013-04-02 19:10:00,
2013-04-02 14:15:00,36.4,34.3,30.27,SE,143,0.9,2.3,92,0.01,CLR,,0.12,WeatherDisplay:10.37,2013-04-02 19:15:00,
2013-04-02 14:20:00,36.3,34.2,30.27,East,91,1.3,4.0,92,0.01,CLR,,0.12,WeatherDisplay:10.37,2013-04-02 19:20:00,
2013-04-02 14:25:00,36.2,34.1,30.26,ESE,121,2.6,3.5,92,0.01,CLR,,0.12,WeatherDisplay:10.37,2013-04-02 19:25:00,
2013-04-02 14:30:00,36.0,33.9,30.27,SSE,162,1.1,4.6,92,0.01,CLR,,0.12,WeatherDisplay:10.37,2013-04-02 19:30:00,
2013-04-02 14:35:00,36.0,33.9,30.26,SE,131,2.4,4.0,92,0.01,CLR,,0.12,WeatherDisplay:10.37,2013-04-02 19:35:00,
2013-04-02 14:40:00,35.9,33.5,30.26,ESE,108,3.2,4.6,91,0.02,RA,,0.13,WeatherDisplay:10.37,2013-04-02 19:40:00,
2013-04-02 14:46:00,35.8,33.4,30.27,SSE,153,2.8,5.8,91,0.01,RA,,0.13,WeatherDisplay:10.37,2013-04-02 19:46:00,
2013-04-02 14:51:00,35.7,33.3,30.26,ESE,119,2.0,4.6,91,0.01,CLR,,0.13,WeatherDisplay:10.37,2013-04-02 19:51:00,
2013-04-02 14:57:00,35.7,33.3,30.27,ESE,120,3.5,3.5,91,0.01,CLR,,0.13,WeatherDisplay:10.37,2013-04-02 19:57:00,
2013-04-02 15:02:00,35.7,33.3,30.26,ESE,111,1.6,3.5,91,0.01,CLR,,0.13,WeatherDisplay:10.37,2013-04-02 20:02:00,
2013-04-02 15:07:00,35.8,33.4,30.27,ENE,75,2.7,3.5,91,0.01,CLR,,0.13,WeatherDisplay:10.37,2013-04-02 20:07:00,
2013-04-02 15:12:00,36.0,33.9,30.26,ESE,113,0.5,1.1,92,0.01,CLR,,0.13,WeatherDisplay:10.37,2013-04-02 20:12:00,
2013-04-02 15:17:00,36.0,33.9,30.26,SE,131,0.0,0.0,92,0.01,CLR,,0.13,WeatherDisplay:10.37,2013-04-02 20:17:00,
2013-04-02 15:22:00,36.2,34.1,30.26,ESE,113,1.3,1.3,92,0.02,RA,,0.14,WeatherDisplay:10.37,2013-04-02 20:22:00,
2013-04-02 15:27:00,36.3,34.2,30.27,ESE,118,0.0,0.0,92,0.02,RA,,0.14,WeatherDisplay:10.37,2013-04-02 20:27:00,
2013-04-02 15:32:00,36.5,34.4,30.26,SE,134,0.0,1.1,92,0.02,CLR,,0.14,WeatherDisplay:10.37,2013-04-02 20:32:00,
2013-04-02 15:38:00,36.5,34.4,30.26,ESE,115,1.0,2.3,92,0.02,CLR,,0.14,WeatherDisplay:10.37,2013-04-02 20:38:00,
2013-04-02 15:43:00,36.4,34.3,30.26,South,170,0.1,1.1,92,0.01,CLR,,0.14,WeatherDisplay:10.37,2013-04-02 20:43:00,
2013-04-02 15:48:00,36.5,34.4,30.26,SE,131,0.9,2.3,92,0.01,CLR,,0.14,WeatherDisplay:10.37,2013-04-02 20:48:00,
2013-04-02 15:53:00,36.5,34.4,30.26,SE,131,0.1,1.1,92,0.01,CLR,,0.14,WeatherDisplay:10.37,2013-04-02 20:53:00,
2013-04-02 15:58:00,36.6,34.8,30.26,East,89,0.0,0.0,93,0.01,CLR,,0.14,WeatherDisplay:10.37,2013-04-02 20:58:00,
2013-04-02 16:03:00,36.6,34.5,30.26,ESE,107,1.5,2.3,92,0.01,CLR,,0.14,WeatherDisplay:10.37,2013-04-02 21:03:00,
2013-04-02 16:08:00,36.4,34.3,30.26,SE,141,1.3,3.5,92,0.01,CLR,,0.14,WeatherDisplay:10.37,2013-04-02 21:08:00,
2013-04-02 16:13:00,36.4,34.3,30.26,SE,143,0.8,2.3,92,0.01,CLR,,0.14,WeatherDisplay:10.37,2013-04-02 21:13:00,
2013-04-02 16:18:00,36.4,34.3,30.26,ESE,108,1.5,3.5,92,0.00,CLR,,0.14,WeatherDisplay:10.37,2013-04-02 21:18:00,
2013-04-02 16:23:00,36.7,34.9,30.26,SE,127,0.7,1.1,93,0.00,CLR,,0.14,WeatherDisplay:10.37,2013-04-02 21:23:00,
2013-04-02 16:29:00,36.8,34.7,30.26,SSE,148,0.0,0.0,92,0.00,CLR,,0.14,WeatherDisplay:10.37,2013-04-02 21:29:00,
2013-04-02 16:34:00,36.9,34.8,30.26,ESE,110,1.3,3.5,92,0.00,CLR,,0.14,WeatherDisplay:10.37,2013-04-02 21:34:00,
2013-04-02 16:39:00,36.8,34.4,30.26,ENE,66,4.2,6.9,91,0.00,CLR,,0.14,WeatherDisplay:10.37,2013-04-02 21:39:00,
2013-04-02 16:44:00,36.8,34.1,30.25,ENE,74,2.8,4.0,90,0.00,CLR,,0.14,WeatherDisplay:10.37,2013-04-02 21:44:00,
2013-04-02 16:49:00,36.9,34.5,30.26,East,92,2.0,3.5,91,0.00,CLR,,0.14,WeatherDisplay:10.37,2013-04-02 21:49:00,
2013-04-02 16:54:00,36.9,34.5,30.25,East,98,2.2,3.5,91,0.00,CLR,,0.14,WeatherDisplay:10.37,2013-04-02 21:54:00,
2013-04-02 16:59:00,37.1,35.0,30.25,ESE,115,0.5,1.1,92,0.00,CLR,,0.14,WeatherDisplay:10.37,2013-04-02 21:59:00,
2013-04-02 17:04:00,37.3,35.2,30.25,East,89,0.0,1.1,92,0.00,CLR,,0.14,WeatherDisplay:10.37,2013-04-02 22:04:00,
2013-04-02 17:09:00,37.4,35.0,30.25,ESE,105,1.4,2.3,91,0.00,CLR,,0.14,WeatherDisplay:10.37,2013-04-02 22:09:00,
2013-04-02 17:14:00,37.4,35.0,30.25,SE,125,3.0,3.5,91,0.00,CLR,,0.14,WeatherDisplay:10.37,2013-04-02 22:14:00,
2013-04-02 17:19:00,37.2,34.3,30.26,SSE,153,2.5,3.5,89,0.00,CLR,,0.14,WeatherDisplay:10.37,2013-04-02 22:19:00,
2013-04-02 17:24:00,37.3,34.6,30.25,East,89,1.9,5.0,90,0.00,CLR,,0.14,WeatherDisplay:10.37,2013-04-02 22:24:00,
2013-04-02 17:29:00,37.3,34.6,30.25,ENE,75,2.2,3.5,90,0.01,RA,,0.15,WeatherDisplay:10.37,2013-04-02 22:29:00,
2013-04-02 17:34:00,37.3,34.4,30.25,ESE,120,0.3,2.3,89,0.01,RA,,0.15,WeatherDisplay:10.37,2013-04-02 22:34:00,
2013-04-02 17:39:00,37.3,34.4,30.25,ESE,123,2.2,3.5,89,0.01,CLR,,0.15,WeatherDisplay:10.37,2013-04-02 22:39:00,
2013-04-02 17:44:00,37.2,34.3,30.25,ENE,70,2.4,3.5,89,0.01,CLR,,0.15,WeatherDisplay:10.37,2013-04-02 22:44:00,
2013-04-02 17:49:00,37.4,34.7,30.25,ESE,105,1.9,2.3,90,0.01,CLR,,0.15,WeatherDisplay:10.37,2013-04-02 22:49:00,
2013-04-02 17:54:00,37.4,34.5,30.25,East,88,1.2,3.5,89,0.01,CLR,,0.15,WeatherDisplay:10.37,2013-04-02 22:54:00,
2013-04-02 17:59:00,37.6,34.9,30.26,East,84,0.6,1.1,90,0.01,CLR,,0.15,WeatherDisplay:10.37,2013-04-02 22:59:00,
2013-04-02 18:04:00,37.6,34.7,30.25,East,83,0.9,2.3,89,0.01,CLR,,0.15,WeatherDisplay:10.37,2013-04-02 23:04:00,
2013-04-02 18:09:00,37.5,34.3,30.25,ENE,67,2.4,3.5,88,0.01,CLR,,0.15,WeatherDisplay:10.37,2013-04-02 23:09:00,
2013-04-02 18:14:00,37.6,34.7,30.25,SE,124,1.7,1.7,89,0.01,CLR,,0.15,WeatherDisplay:10.37,2013-04-02 23:14:00,
2013-04-02 18:20:00,37.7,34.8,30.25,ESE,102,1.4,3.5,89,0.01,CLR,,0.15,WeatherDisplay:10.37,2013-04-02 23:20:00,
2013-04-02 18:25:00,37.6,34.1,30.25,East,91,4.1,5.0,87,0.01,CLR,,0.15,WeatherDisplay:10.37,2013-04-02 23:25:00,
2013-04-02 18:30:00,37.6,34.4,30.24,ENE,68,2.3,4.0,88,0.00,CLR,,0.15,WeatherDisplay:10.37,2013-04-02 23:30:00,
2013-04-02 18:35:00,37.6,34.4,30.25,SSE,149,2.4,4.6,88,0.00,CLR,,0.15,WeatherDisplay:10.37,2013-04-02 23:35:00,
2013-04-02 18:40:00,37.5,34.3,30.25,ESE,115,1.5,2.3,88,0.00,CLR,,0.15,WeatherDisplay:10.37,2013-04-02 23:40:00,
2013-04-02 18:45:00,37.5,34.0,30.24,ENE,75,2.0,3.5,87,0.00,CLR,,0.15,WeatherDisplay:10.37,2013-04-02 23:45:00,
2013-04-02 18:50:00,37.5,34.0,30.25,ENE,76,1.3,4.6,87,0.00,CLR,,0.15,WeatherDisplay:10.37,2013-04-02 23:50:00,
2013-04-02 18:55:00,37.6,33.8,30.25,ESE,115,2.4,4.6,86,0.00,CLR,,0.15,WeatherDisplay:10.37,2013-04-02 23:55:00,
2013-04-02 19:01:00,37.6,34.1,30.25,East,80,0.9,2.3,87,0.00,CLR,,0.15,WeatherDisplay:10.37,2013-04-03 00:01:00,
2013-04-02 19:06:00,37.6,33.8,30.25,ESE,109,0.9,3.5,86,0.00,CLR,,0.15,WeatherDisplay:10.37,2013-04-03 00:06:00,
2013-04-02 19:11:00,37.6,33.2,30.24,East,79,0.9,3.5,84,0.00,CLR,,0.15,WeatherDisplay:10.37,2013-04-03 00:11:00,
2013-04-02 19:17:00,37.5,32.8,30.25,East,79,1.3,2.3,83,0.00,CLR,,0.15,WeatherDisplay:10.37,2013-04-03 00:17:00,
2013-04-02 19:22:00,37.5,32.5,30.25,ESE,105,2.4,3.5,82,0.00,CLR,,0.15,WeatherDisplay:10.37,2013-04-03 00:22:00,
2013-04-02 19:27:00,37.3,32.9,30.25,East,96,1.9,3.5,84,0.00,CLR,,0.15,WeatherDisplay:10.37,2013-04-03 00:27:00,
2013-04-02 19:32:00,37.3,32.6,30.25,ENE,77,0.6,3.5,83,0.00,CLR,,0.15,WeatherDisplay:10.37,2013-04-03 00:32:00,
2013-04-02 19:37:00,37.3,32.3,30.25,East,98,1.2,1.2,82,0.00,CLR,,0.15,WeatherDisplay:10.37,2013-04-03 00:37:00,
2013-04-02 19:42:00,37.2,32.5,30.25,East,82,1.1,2.3,83,0.00,CLR,,0.15,WeatherDisplay:10.37,2013-04-03 00:42:00,
2013-04-02 19:47:00,37.1,32.1,30.25,East,86,1.6,3.5,82,0.00,CLR,,0.15,WeatherDisplay:10.37,2013-04-03 00:47:00,
2013-04-02 19:52:00,37.1,32.1,30.25,ESE,108,0.8,2.3,82,0.00,CLR,,0.15,WeatherDisplay:10.37,2013-04-03 00:52:00,
2013-04-02 19:58:00,37.0,32.0,30.25,SE,124,1.7,2.3,82,0.00,CLR,,0.15,WeatherDisplay:10.37,2013-04-03 00:58:00,
2013-04-02 20:03:00,36.9,32.2,30.25,East,88,1.0,2.3,83,0.00,,,0.15,WeatherDisplay:10.37,2013-04-03 01:03:00,
2013-04-02 20:08:00,37.0,32.3,30.25,ESE,105,0.0,0.0,83,0.00,,,0.15,WeatherDisplay:10.37,2013-04-03 01:08:00,
2013-04-02 20:13:00,36.9,31.9,30.25,ESE,120,0.1,1.1,82,0.00,,,0.15,WeatherDisplay:10.37,2013-04-03 01:13:00,
2013-04-02 20:18:00,36.8,32.4,30.25,ESE,113,0.0,0.0,84,0.00,,,0.15,WeatherDisplay:10.37,2013-04-03 01:18:00,
2013-04-02 20:23:00,36.8,32.7,30.24,East,96,0.1,0.0,85,0.00,,,0.15,WeatherDisplay:10.37,2013-04-03 01:23:00,
2013-04-02 20:28:00,36.7,32.6,30.25,ESE,123,0.3,2.3,85,0.00,,,0.15,WeatherDisplay:10.37,2013-04-03 01:28:00,
2013-04-02 20:33:00,36.8,33.0,30.25,ESE,119,0.0,1.1,86,0.00,,,0.15,WeatherDisplay:10.37,2013-04-03 01:33:00,
2013-04-02 20:38:00,36.8,33.0,30.25,ESE,119,0.0,0.0,86,0.00,,,0.15,WeatherDisplay:10.37,2013-04-03 01:38:00,
2013-04-02 20:43:00,36.8,33.6,30.25,ESE,118,0.0,0.0,88,0.00,,,0.15,WeatherDisplay:10.37,2013-04-03 01:43:00,
2013-04-02 20:48:00,36.7,33.5,30.25,ESE,118,0.0,0.0,88,0.00,,,0.15,WeatherDisplay:10.37,2013-04-03 01:48:00,
2013-04-02 20:53:00,36.7,33.8,30.25,ESE,119,0.0,1.1,89,0.00,,,0.15,WeatherDisplay:10.37,2013-04-03 01:53:00,
2013-04-02 20:58:00,36.7,34.0,30.25,SE,135,0.0,1.1,90,0.00,,,0.15,WeatherDisplay:10.37,2013-04-03 01:58:00,
2013-04-02 21:04:00,36.6,33.9,30.25,ESE,121,0.1,1.1,90,0.00,,,0.15,WeatherDisplay:10.37,2013-04-03 02:04:00,
2013-04-02 21:09:00,36.6,34.2,30.25,SE,125,0.0,0.0,91,0.00,,,0.15,WeatherDisplay:10.37,2013-04-03 02:09:00,
2013-04-02 21:14:00,36.6,34.2,30.25,SE,136,0.0,0.0,91,0.00,,,0.15,WeatherDisplay:10.37,2013-04-03 02:14:00,
2013-04-02 21:19:00,36.6,34.5,30.25,SE,137,0.0,0.0,92,0.00,,,0.15,WeatherDisplay:10.37,2013-04-03 02:19:00,
2013-04-02 21:24:00,36.6,34.5,30.26,SE,138,0.0,0.0,92,0.00,,,0.15,WeatherDisplay:10.37,2013-04-03 02:24:00,
2013-04-02 21:29:00,36.5,34.4,30.26,SE,138,0.3,1.1,92,0.00,,,0.15,WeatherDisplay:10.37,2013-04-03 02:29:00,
2013-04-02 21:34:00,36.5,34.7,30.25,ESE,111,0.6,2.3,93,0.00,,,0.15,WeatherDisplay:10.37,2013-04-03 02:34:00,
2013-04-02 21:39:00,36.5,34.7,30.25,ESE,110,0.7,2.3,93,0.00,,,0.15,WeatherDisplay:10.37,2013-04-03 02:39:00,
2013-04-02 21:44:00,36.4,34.6,30.25,SSE,149,0.0,1.1,93,0.00,,,0.15,WeatherDisplay:10.37,2013-04-03 02:44:00,
2013-04-02 21:49:00,36.4,34.6,30.25,ESE,117,0.6,2.3,93,0.00,,,0.15,WeatherDisplay:10.37,2013-04-03 02:49:00,
2013-04-02 21:54:00,36.4,34.6,30.25,ESE,106,0.0,2.3,93,0.00,,,0.15,WeatherDisplay:10.37,2013-04-03 02:54:00,
2013-04-02 21:59:00,36.3,34.5,30.26,SE,124,0.6,2.3,93,0.00,,,0.15,WeatherDisplay:10.37,2013-04-03 02:59:00,
2013-04-02 22:04:00,36.3,34.5,30.26,ESE,122,0.6,1.1,93,0.00,,,0.15,WeatherDisplay:10.37,2013-04-03 03:04:00,
2013-04-02 22:09:00,36.2,34.6,30.26,ESE,119,0.0,1.1,94,0.00,,,0.15,WeatherDisplay:10.37,2013-04-03 03:09:00,
2013-04-02 22:14:00,36.1,34.5,30.26,ESE,108,0.0,1.1,94,0.00,,,0.15,WeatherDisplay:10.37,2013-04-03 03:14:00,
2013-04-02 22:19:00,36.1,34.5,30.26,ESE,112,0.1,1.1,94,0.00,,,0.15,WeatherDisplay:10.37,2013-04-03 03:19:00,
2013-04-02 22:24:00,36.0,34.4,30.26,SE,131,0.0,1.1,94,0.00,,,0.15,WeatherDisplay:10.37,2013-04-03 03:24:00,
2013-04-02 22:29:00,35.9,34.3,30.26,SE,131,0.0,1.1,94,0.00,,,0.15,WeatherDisplay:10.37,2013-04-03 03:29:00,
2013-04-02 22:34:00,35.9,34.3,30.26,SE,131,0.1,0.0,94,0.00,,,0.15,WeatherDisplay:10.37,2013-04-03 03:34:00,
2013-04-02 22:40:00,35.9,34.3,30.26,ESE,117,0.1,1.1,94,0.00,,,0.15,WeatherDisplay:10.37,2013-04-03 03:40:00,
2013-04-02 22:45:00,35.9,34.3,30.25,East,91,0.2,1.1,94,0.00,,,0.15,WeatherDisplay:10.37,2013-04-03 03:45:00,
2013-04-02 22:50:00,36.0,34.4,30.26,East,79,0.7,1.1,94,0.00,,,0.15,WeatherDisplay:10.37,2013-04-03 03:50:00,
2013-04-02 22:55:00,35.9,34.3,30.25,East,80,0.4,1.1,94,0.00,,,0.15,WeatherDisplay:10.37,2013-04-03 03:55:00,
2013-04-02 23:00:00,35.8,34.2,30.26,ESE,114,0.0,0.0,94,0.00,,,0.15,WeatherDisplay:10.37,2013-04-03 04:00:00,
2013-04-02 23:03:00,35.7,34.1,30.26,ESE,114,0.0,0.0,94,0.00,,,0.15,WeatherDisplay:10.37,2013-04-03 04:03:00,
2013-04-02 23:08:00,35.6,34.0,30.26,East,88,0.0,0.0,94,0.00,,,0.15,WeatherDisplay:10.37,2013-04-03 04:08:00,
2013-04-02 23:13:00,35.6,34.0,30.26,East,89,0.0,0.0,94,0.00,,,0.15,WeatherDisplay:10.37,2013-04-03 04:13:00,
2013-04-02 23:18:00,35.4,33.8,30.26,ESE,109,0.0,0.0,94,0.00,,,0.15,WeatherDisplay:10.37,2013-04-03 04:18:00,
2013-04-02 23:23:00,35.4,33.8,30.26,East,81,0.0,0.0,94,0.00,,,0.15,WeatherDisplay:10.37,2013-04-03 04:23:00,
2013-04-02 23:28:00,35.5,34.2,30.26,East,81,0.0,1.1,95,0.00,,,0.15,WeatherDisplay:10.37,2013-04-03 04:28:00,
2013-04-02 23:33:00,35.5,34.2,30.26,East,81,0.0,0.0,95,0.00,,,0.15,WeatherDisplay:10.37,2013-04-03 04:33:00,
2013-04-02 23:38:00,35.5,33.9,30.26,East,80,0.0,0.0,94,0.00,,,0.15,WeatherDisplay:10.37,2013-04-03 04:38:00,
2013-04-02 23:44:00,35.4,33.8,30.27,East,81,0.0,0.0,94,0.00,,,0.15,WeatherDisplay:10.37,2013-04-03 04:44:00,
2013-04-02 23:49:00,35.4,33.8,30.28,East,81,0.0,0.0,94,0.00,,,0.15,WeatherDisplay:10.37,2013-04-03 04:49:00,
2013-04-02 23:54:00,35.5,34.2,30.27,East,80,0.1,1.1,95,0.00,,,0.15,WeatherDisplay:10.37,2013-04-03 04:54:00,
2013-04-02 23:59:00,35.6,34.3,30.26,East,91,1.0,1.1,95,0.00,,,0.15,WeatherDisplay:10.37,2013-04-03 04:59:00,